Regional Weather Roundup
Issued by NWS Wilmington, NC

Home | Current Version | Previous Version | Text Only | Print | Product List | Glossary On
Versions: 1 2 3 4 5 6 7 8 9 10 11 12 13 14 15 16 17 18 19 20 21 22 23 24 25 26 27 28 29 30 31 32 33 34 35 36 37 38 39 40 41 42 43 44 45 46 47 48 49 50
000
ASUS42 KILM 250413
RWRILM
RWRILM
REGIONAL HOURLY WEATHER ROUNDUP
NATIONAL WEATHER SERVICE WILMINGTON NC
1200 AM EDT SAT APR 25 2015

NOTE: "FAIR" INDICATES FEW OR NO CLOUDS BELOW 12,000 FEET WITH NO
SIGNIFICANT WEATHER AND/OR OBSTRUCTIONS TO VISIBILITY.

...............WFO WILMINGTON COUNTY WARNING AREA...............

......COASTAL NC AND SC COUNTIES......

CITY           SKY/WX    TMP DP  RH WIND       PRES   REMARKS
WILMINGTON     MOCLDY    57  45  64 SW5       29.99F
N MYRTLE BEACH PTCLDY    57  45  64 SW3       30.00F
MYRTLE BEACH   MOCLDY    61  43  51 SW5       30.02F

......INLAND NC AND SC COUNTIES.......

CITY           SKY/WX    TMP DP  RH WIND       PRES   REMARKS
LUMBERTON      MOCLDY    54  43  66 S3        29.97F
ELIZABETHTOWN  MOCLDY    56  43  61 SW3       29.98F
WHITEVILLE     PTCLDY    54  44  67 SW5       29.98F
FLORENCE       PTCLDY    57  44  62 S8        29.98F
DARLINGTON     MOCLDY    57  41  54 SW3       29.98F

....................REST OF NORTH CAROLINA......................

.........EASTERN NC.........

CITY           SKY/WX    TMP DP  RH WIND       PRES   REMARKS
CAPE HATTERAS  CLEAR     46  41  82 W5        29.98F
JACKSONVILLE   PTCLDY    48  41  76 CALM      29.99F
MOREHEAD CITY  PTCLDY    61  50  67 SW8       29.99F
KENANSVILLE    PTCLDY    48  42  79 CALM      29.98F
NEW BERN       PTCLDY    52  43  71 SW6       29.99F
ELIZABETH CITY CLEAR     48  39  71 CALM      29.96F

.........CENTRAL NC.........

CITY           SKY/WX    TMP DP  RH WIND       PRES   REMARKS
RALEIGH DURHAM MOCLDY    50  38  63 CALM      29.96F
ROCKY MOUNT    PTCLDY    46  40  79 CALM      29.96F
ROANOKE RAPIDS NOT AVBL
FAYETTEVILLE   MOCLDY    56  39  53 S5        29.96F
HOFFMAN        MOCLDY    50  46  84 S3        30.00F

.........WESTERN NC.........

CITY           SKY/WX    TMP DP  RH WIND       PRES   REMARKS
CHARLOTTE      MOCLDY    57  37  47 CALM      29.96F
GREENSBORO     MOCLDY    53  35  50 S3        29.93F
HICKORY        NOT AVBL
BOONE          NOT AVBL
ASHEVILLE      NOT AVBL

.....................REST OF SOUTH CAROLINA.....................

.........EASTERN SC.........

CITY           SKY/WX    TMP DP  RH WIND       PRES   REMARKS
CHARLESTON     CLOUDY    58  47  66 S5        30.01S
BEAUFORT MCAS  CLOUDY    65  51  60 CALM      30.00F
HILTON HEAD    CLOUDY    64  46  52 CALM      30.01S

.........CENTRAL SC.........

CITY           SKY/WX    TMP DP  RH WIND       PRES   REMARKS
COLUMBIA       MOCLDY    59  42  53 SW5       29.97F
ORANGEBURG     MOCLDY    58  46  64 S5        30.00S
SUMTER SHAW    MOCLDY    57  45  63 S5        29.96F

.........WESTERN SC.........

CITY           SKY/WX    TMP DP  RH WIND       PRES   REMARKS
GREENVILLE     NOT AVBL
ROCK HILL      MOCLDY    53  43  68 SW5       29.96S
ANDERSON       CLOUDY    62  44  51 CALM      29.94F
CLEMSON        NOT AVBL
GREENWOOD      CLOUDY    59  46  62 S5        29.97F


...................COASTAL AND OFFSHORE REPORTS..................

................LOCAL PIERS AND NC RESERVE................


STATION/POSITION TIME  SKY/WX   TEMP    WIND        PRES    VSBY
                                AIR SEA DIR/SP/G
                 (UTC)          (F)     (DEG/KT/KT) (MB)    (MI)
JOHNY MRCER PIER 0300            60 67  230/  8/ 10 1015.3F
NC RESRV MASNBRO NOT AVBL
OCEAN CREST PIER 0402            64 67  200/ 17/ 19 1014.6F
SPRINGMAID  PIER 0300            61 67  210/  8/ 10 1016.5F


................COASTAL AND OFFSHORE BUOYS................


STATION/POSITION TIME  SKY/WX   TEMP    WIND        PRES    VSBY
                                AIR SEA DIR/SP/G
                 (UTC)          (F)     (DEG/KT/KT) (MB)    (MI)
DIMNDSHOAL 41025 0350            64 73  240/ 14/ 19 1015.2F
WVE H/P(F/S)=  5/10 WND WVE H/P(F/S)=  2/ 5 SWL H/P/D(F/S/D)=  5/ 80/10

CAPE LOOKOUT     0400            61     250/  9/ 12 1015.4F
ONSLOW BAY 41036 NOT AVBL
5 WRITEBCH 41038 0308            63 65  240/ 14/ 17 1015.8F
MASONBORO  41110 0319               65                N/A
WVE H/P(F/S)=  2/14 WND WVE H/P(F/S)=  2/ 8 SWL H/P/D(F/S/D)=  2/110/14

WILM HARBR 41108 0311               65                N/A
WVE H/P(F/S)=  2/14 WND WVE H/P(F/S)=  2/ 3 SWL H/P/D(F/S/D)=  2/120/14

27WRITEBCH 41037 0300            63 71  260/ 16/ 17   N/A
FRYING PAN 41013 0350            66 71  230/ 10/ 12 1016.6F
WVE H/P(F/S)=  3/ 8 WND WVE H/P(F/S)=  2/ 3 SWL H/P/D(F/S/D)=  3/ 90/ 8

SUNST NRSH 41024 0308            64     240/ 14/ 17   N/A
CAPRS NRSH 41029 0308            66     180/ 10/ 14   N/A
EDISTO     41004 0350            67 72  190/  6/ 10 1016.0F
WVE H/P(F/S)=  3/ 8 SWL H/P/D(F/S/D)=  3/ 8



..........OFFSHORE BUOYS BEYOND 100 NM OFFSHORE...........
.....IN A TRIANGLE---HAT TO BERMUDA TO BAHAMAS TO HAT.....


STATION/POSITION TIME  SKY/WX   TEMP    WIND        PRES    VSBY
                                AIR SEA DIR/SP/G
                 (UTC)          (F)     (DEG/KT/KT) (MB)    (MI)
150E HAT   41001 NOT AVBL
W BERMUDA  41048 0350            64 70  320/ 19/ 23 1013.8R
WVE H/P(F/S)=  7/ 6 WND WVE H/P(F/S)=  7/ 6 SWL H/P/D(F/S/D)=  3/13

ATLANTIC S 41049 0350            76 77  250/ 12/ 14 1012.2F
WVE H/P(F/S)=  4/11 WND WVE H/P(F/S)=  2/ 4 SWL H/P/D(F/S/D)=  3/ 40/11

E BAHAMAS  41046 0350            79 80  300/  8/ 10 1014.5F
WVE H/P(F/S)=  5/14 WND WVE H/P(F/S)=  2/ 4 SWL H/P/D(F/S/D)=  5/ 50/14

NE BAHAMAS 41047 0350            76 78  340/  8/ 10 1014.4S
WVE H/P(F/S)=  4/14 WND WVE H/P(F/S)=  2/ 3 SWL H/P/D(F/S/D)=  3/ 60/14

120E CANVRL41010 0320            75 78   60/ 12/ 12 1016.0F

END


USA.gov is the U.S. government's official web portal to all federal, state and local government web resources and services.